Location: *
(2.5500°S, 65.9667°W)
Time: 11:07:02
(UTC+00:00)

GPS 2-15 Rocket1 - Pass Details

Date: 26 October 2021
Orbit: 623 x 675 km, 19.8° (Epoch: 28 November)

Event Time Altitude Azimuth Distance (km) Brightness Sun altitude
Rises 23:40:36 0° 302° (WNW) 2,991 7.2 -22.0°
Reaches altitude 10° 23:43:04 10° 308° (NW) 2,083 6.2 -22.6°
Enters shadow 23:47:19 44° 4° (N) 918 3.7 -23.6°
